Regional Weather Roundup
Issued by NWS Goodland, KS

Home | Current Version | Previous Version | Text Only | Print | Product List | Glossary On
Versions: 1 2 3 4 5 6 7 8 9 10 11 12 13 14 15 16 17 18 19 20 21 22 23 24 25 26 27 28 29 30 31 32 33 34 35 36 37 38 39 40 41 42 43 44 45 46 47 48 49 50
000
ASUS43 KGLD 261908
RWRGLD

GOODLAND FORECAST AREA HOURLY WEATHER ROUNDUP
NATIONAL WEATHER SERVICE GOODLAND KS
1200 PM MST MON JAN 26 2015

...OFFICIAL OBSERVATIONS...

CITY           SKY/WX    TMP DP  RH WIND       PRES   REMARKS
GOODLAND KS    SUNNY     66  31  27 N16G24    30.17F
HILL CITY KS   SUNNY     68  31  25 NW16G28   30.08F
IMPERIAL NEB   SUNNY     66  29  24 NW24      30.12F
MCCOOK NEB     SUNNY     69  30  23 N22G29    30.08F
AKRON CO       SUNNY     56  30  37 W10       30.22F
BURLINGTON CO  SUNNY     65  29  25 N18       30.21F
LIMON CO       SUNNY     64  23  21 NW12      30.27F
$$

...UNOFFICIAL OBSERVATIONS...

CITY           SKY/WX    TMP DP  RH WIND       PRES   REMARKS
COLBY KS       SUNNY     66  37  34 NW16G23   30.14F
GOVE KS          N/A     67  32  27 MISG        N/A
NORTON KS      SUNNY     68  28  22 NW16G24   30.05F
SHARON SPRINGS   N/A     66  33  29 N20         N/A
KIT CARSON CO    N/A     66  32  27 MISG        N/A
YUMA CO          N/A     61  31  31 W18         N/A
$$



USA.gov is the U.S. government's official web portal to all federal, state and local government web resources and services.